Time,TemperatureF,DewpointF,PressureIn,WindDirection,WindDirectionDegrees,WindSpeedMPH,WindSpeedGustMPH,Humidity,HourlyPrecipIn,Conditions,Clouds,dailyrainin,SoftwareType,DateUTC
2013-07-24 00:02:00,66.0,56.0,30.01,East,79,3.0,8.0,70,0.00,,,0.00,,2013-07-24 07:02:00,
2013-07-24 00:11:00,66.0,56.0,30.01,East,79,3.0,8.0,70,0.00,,,0.00,,2013-07-24 07:11:00,
2013-07-24 00:22:00,67.0,56.0,30.01,ENE,64,1.0,4.0,69,0.00,,,0.00,,2013-07-24 07:22:00,
2013-07-24 00:32:00,67.0,56.0,30.01,ENE,64,1.0,4.0,69,0.00,,,0.00,,2013-07-24 07:32:00,
2013-07-24 00:43:00,67.0,56.0,30.01,ENE,67,0.0,3.0,68,0.00,,,0.00,,2013-07-24 07:43:00,
2013-07-24 00:53:00,67.0,57.0,30.01,ENE,78,0.0,1.0,70,0.00,,,0.00,,2013-07-24 07:53:00,
2013-07-24 01:01:00,67.0,57.0,30.01,ENE,78,0.0,1.0,70,0.00,,,0.00,,2013-07-24 08:01:00,
2013-07-24 01:12:00,66.0,56.0,30.00,ENE,78,0.0,1.0,70,0.00,,,0.00,,2013-07-24 08:12:00,
2013-07-24 01:42:00,67.0,56.0,30.00,ENE,78,0.0,2.0,67,0.00,,,0.00,,2013-07-24 08:42:00,
2013-07-24 01:52:00,67.0,56.0,30.00,ENE,78,0.0,1.0,67,0.00,,,0.00,,2013-07-24 08:52:00,
2013-07-24 02:02:00,68.0,56.0,30.00,ENE,78,0.0,1.0,66,0.00,,,0.00,,2013-07-24 09:02:00,
2013-07-24 02:11:00,68.0,56.0,30.00,ENE,78,0.0,1.0,66,0.00,,,0.00,,2013-07-24 09:11:00,
2013-07-24 02:32:00,68.0,56.0,30.00,East,90,0.0,3.0,65,0.00,,,0.00,,2013-07-24 09:32:00,
2013-07-24 02:43:00,68.0,56.0,30.00,ENE,75,1.0,3.0,66,0.00,,,0.00,,2013-07-24 09:43:00,
2013-07-24 02:53:00,67.0,56.0,30.00,ENE,74,0.0,3.0,67,0.00,,,0.00,,2013-07-24 09:53:00,
2013-07-24 03:01:00,67.0,56.0,30.00,ENE,74,0.0,3.0,67,0.00,,,0.00,,2013-07-24 10:01:00,
2013-07-24 03:11:00,64.0,56.0,30.01,ENE,74,0.0,1.0,75,0.00,,,0.00,,2013-07-24 10:11:00,
2013-07-24 03:32:00,62.0,56.0,30.01,ENE,74,0.0,0.0,80,0.00,,,0.00,,2013-07-24 10:32:00,
2013-07-24 03:43:00,61.0,56.0,30.01,ENE,74,0.0,0.0,84,0.00,,,0.00,,2013-07-24 10:43:00,
2013-07-24 03:53:00,60.0,56.0,30.02,ENE,74,0.0,0.0,86,0.00,,,0.00,,2013-07-24 10:53:00,
2013-07-24 04:01:00,59.0,55.0,30.02,ENE,74,0.0,0.0,88,0.00,,,0.00,,2013-07-24 11:01:00,
2013-07-24 04:11:00,59.0,55.0,30.02,ENE,74,0.0,0.0,88,0.00,,,0.00,,2013-07-24 11:11:00,
2013-07-24 04:22:00,59.0,56.0,30.02,ENE,74,0.0,0.0,89,0.00,,,0.00,,2013-07-24 11:22:00,
2013-07-24 04:32:00,58.0,55.0,30.02,ENE,74,0.0,0.0,90,0.00,,,0.00,,2013-07-24 11:32:00,
2013-07-24 04:43:00,58.0,55.0,30.02,ENE,74,0.0,0.0,90,0.00,,,0.00,,2013-07-24 11:43:00,
2013-07-24 04:52:00,58.0,56.0,30.03,ENE,74,0.0,0.0,92,0.00,,,0.00,,2013-07-24 11:52:00,
2013-07-24 05:01:00,58.0,56.0,30.03,ENE,74,0.0,0.0,92,0.00,,,0.00,,2013-07-24 12:01:00,
2013-07-24 05:11:00,57.0,55.0,30.02,ENE,74,0.0,0.0,92,0.00,,,0.00,,2013-07-24 12:11:00,
2013-07-24 05:32:00,57.0,55.0,30.03,ENE,74,0.0,0.0,93,0.00,,,0.00,,2013-07-24 12:32:00,
2013-07-24 05:42:00,56.0,54.0,30.03,ENE,74,0.0,0.0,94,0.00,,,0.00,,2013-07-24 12:42:00,
2013-07-24 05:52:00,56.0,54.0,30.02,ENE,74,0.0,0.0,94,0.00,,,0.00,,2013-07-24 12:52:00,
2013-07-24 06:11:00,56.0,54.0,30.03,ENE,74,0.0,0.0,94,0.00,,,0.00,,2013-07-24 13:11:00,
2013-07-24 06:32:00,56.0,55.0,30.03,ENE,74,0.0,0.0,95,0.00,,,0.00,,2013-07-24 13:32:00,
2013-07-24 06:43:00,56.0,55.0,30.03,ENE,74,0.0,0.0,95,0.00,,,0.00,,2013-07-24 13:43:00,
2013-07-24 06:53:00,57.0,55.0,30.03,ENE,74,0.0,0.0,94,0.00,,,0.00,,2013-07-24 13:53:00,
2013-07-24 07:00:00,59.0,57.0,30.04,ENE,74,0.0,0.0,92,0.00,,,0.00,,2013-07-24 14:00:00,
2013-07-24 07:02:00,57.0,55.0,30.03,ENE,74,0.0,0.0,94,0.00,,,0.00,,2013-07-24 14:02:00,
2013-07-24 07:32:00,59.0,57.0,30.04,ENE,74,0.0,0.0,92,0.00,,,0.00,,2013-07-24 14:32:00,
2013-07-24 07:43:00,59.0,57.0,30.04,ENE,74,0.0,0.0,92,0.00,,,0.00,,2013-07-24 14:43:00,
2013-07-24 07:55:00,59.0,57.0,30.04,ENE,74,0.0,0.0,92,0.00,,,0.00,,2013-07-24 14:55:00,
2013-07-24 08:12:00,62.0,58.0,30.04,SW,223,0.0,2.0,86,0.00,,,0.00,,2013-07-24 15:12:00,
2013-07-24 08:22:00,62.0,58.0,30.04,SW,223,0.0,2.0,86,0.00,,,0.00,,2013-07-24 15:22:00,
2013-07-24 08:32:00,62.0,58.0,30.04,SW,223,0.0,2.0,86,0.00,,,0.00,,2013-07-24 15:32:00,
2013-07-24 08:43:00,62.0,58.0,30.04,SW,223,0.0,2.0,86,0.00,,,0.00,,2013-07-24 15:43:00,
2013-07-24 08:53:00,64.0,59.0,30.04,WSW,257,0.0,3.0,83,0.00,,,0.00,,2013-07-24 15:53:00,
2013-07-24 09:02:00,65.0,59.0,30.04,WSW,257,0.0,2.0,81,0.00,,,0.00,,2013-07-24 16:02:00,
2013-07-24 09:12:00,65.0,59.0,30.04,WSW,257,0.0,2.0,81,0.00,,,0.00,,2013-07-24 16:12:00,
2013-07-24 09:22:00,65.0,59.0,30.04,West,274,0.0,3.0,80,0.00,,,0.00,,2013-07-24 16:22:00,
2013-07-24 09:32:00,66.0,59.0,30.04,West,273,1.0,3.0,79,0.00,,,0.00,,2013-07-24 16:32:00,
2013-07-24 09:43:00,66.0,59.0,30.04,West,273,1.0,3.0,79,0.00,,,0.00,,2013-07-24 16:43:00,
2013-07-24 09:53:00,68.0,61.0,30.04,WSW,241,1.0,4.0,77,0.00,,,0.00,,2013-07-24 16:53:00,
2013-07-24 10:02:00,68.0,60.0,30.04,WNW,290,1.0,4.0,76,0.00,,,0.00,,2013-07-24 17:02:00,
2013-07-24 10:12:00,68.0,60.0,30.04,WNW,290,1.0,4.0,76,0.00,,,0.00,,2013-07-24 17:12:00,
2013-07-24 10:22:00,69.0,61.0,30.03,WNW,286,0.0,3.0,75,0.00,,,0.00,,2013-07-24 17:22:00,
2013-07-24 10:33:00,69.0,60.0,30.03,WNW,289,2.0,4.0,73,0.00,,,0.00,,2013-07-24 17:33:00,
2013-07-24 10:42:00,69.0,60.0,30.03,WNW,289,2.0,4.0,73,0.00,,,0.00,,2013-07-24 17:42:00,
2013-07-24 10:53:00,70.0,61.0,30.03,SSW,194,1.0,3.0,73,0.00,,,0.00,,2013-07-24 17:53:00,
2013-07-24 11:02:00,70.0,60.0,30.03,WSW,252,1.0,5.0,70,0.00,,,0.00,,2013-07-24 18:02:00,
2013-07-24 11:12:00,70.0,60.0,30.03,WSW,252,1.0,5.0,70,0.00,,,0.00,,2013-07-24 18:12:00,
2013-07-24 11:22:00,71.0,60.0,30.03,NW,319,1.0,5.0,69,0.00,,,0.00,,2013-07-24 18:22:00,
2013-07-24 11:32:00,72.0,60.0,30.03,West,272,2.0,5.0,67,0.00,,,0.00,,2013-07-24 18:32:00,
2013-07-24 11:43:00,72.0,60.0,30.03,West,272,2.0,5.0,67,0.00,,,0.00,,2013-07-24 18:43:00,
2013-07-24 11:52:00,72.0,60.0,30.03,NW,310,2.0,7.0,65,0.00,,,0.00,,2013-07-24 18:52:00,
2013-07-24 12:02:00,72.0,60.0,30.03,NW,310,2.0,7.0,65,0.00,,,0.00,,2013-07-24 19:02:00,
2013-07-24 12:12:00,73.0,60.0,30.03,WNW,300,3.0,7.0,64,0.00,,,0.00,,2013-07-24 19:12:00,
2013-07-24 12:32:00,73.0,61.0,30.04,WSW,246,1.0,6.0,65,0.00,,,0.00,,2013-07-24 19:32:00,
2013-07-24 12:43:00,74.0,60.0,30.03,West,271,2.0,6.0,62,0.00,,,0.00,,2013-07-24 19:43:00,
2013-07-24 12:53:00,76.0,61.0,30.03,NW,310,1.0,8.0,60,0.00,,,0.00,,2013-07-24 19:53:00,
2013-07-24 13:02:00,77.0,61.0,30.03,North,350,1.0,5.0,58,0.00,,,0.00,,2013-07-24 20:02:00,
2013-07-24 13:13:00,77.0,61.0,30.03,North,350,1.0,5.0,58,0.00,,,0.00,,2013-07-24 20:13:00,
2013-07-24 13:22:00,77.0,62.0,30.03,WNW,294,1.0,7.0,59,0.00,,,0.00,,2013-07-24 20:22:00,
2013-07-24 13:32:00,77.0,62.0,30.03,WSW,257,1.0,6.0,59,0.00,,,0.00,,2013-07-24 20:32:00,
2013-07-24 13:42:00,77.0,62.0,30.03,WSW,257,1.0,6.0,59,0.00,,,0.00,,2013-07-24 20:42:00,
2013-07-24 13:53:00,77.0,61.0,30.03,WSW,240,2.0,5.0,57,0.00,,,0.00,,2013-07-24 20:53:00,
2013-07-24 14:12:00,77.0,60.0,30.03,North,350,0.0,8.0,55,0.00,,,0.00,,2013-07-24 21:12:00,
2013-07-24 14:22:00,79.0,60.0,30.03,North,360,2.0,6.0,53,0.00,,,0.00,,2013-07-24 21:22:00,
2013-07-24 14:32:00,79.0,60.0,30.03,North,360,2.0,6.0,53,0.00,,,0.00,,2013-07-24 21:32:00,
2013-07-24 14:43:00,80.0,60.0,30.03,NNW,340,2.0,7.0,50,0.00,,,0.00,,2013-07-24 21:43:00,
2013-07-24 14:52:00,80.0,59.0,30.02,NW,323,2.0,8.0,49,0.00,,,0.00,,2013-07-24 21:52:00,
2013-07-24 15:02:00,81.0,59.0,30.02,NNW,331,2.0,7.0,48,0.00,,,0.00,,2013-07-24 22:02:00,
2013-07-24 15:11:00,81.0,59.0,30.02,NNW,331,2.0,7.0,48,0.00,,,0.00,,2013-07-24 22:11:00,
2013-07-24 20:52:00,75.0,57.0,30.00,NNW,345,0.0,1.0,54,0.00,,,0.00,,2013-07-25 03:52:00,
2013-07-24 21:02:00,74.0,57.0,30.00,North,350,0.0,2.0,55,0.00,,,0.00,,2013-07-25 04:02:00,
2013-07-24 21:11:00,74.0,57.0,30.00,North,350,0.0,2.0,55,0.00,,,0.00,,2013-07-25 04:11:00,
2013-07-24 21:32:00,74.0,57.0,30.00,East,88,0.0,3.0,55,0.00,,,0.00,,2013-07-25 04:32:00,
2013-07-24 21:43:00,72.0,55.0,30.01,East,79,0.0,2.0,56,0.00,,,0.00,,2013-07-25 04:43:00,
2013-07-24 21:53:00,71.0,54.0,30.01,East,79,0.0,2.0,56,0.00,,,0.00,,2013-07-25 04:53:00,
2013-07-24 22:02:00,71.0,54.0,30.01,East,79,0.0,2.0,56,0.00,,,0.00,,2013-07-25 05:02:00,
2013-07-24 22:12:00,70.0,54.0,30.01,East,82,0.0,4.0,56,0.00,,,0.00,,2013-07-25 05:12:00,
2013-07-24 22:32:00,70.0,52.0,30.01,East,82,0.0,1.0,52,0.00,,,0.00,,2013-07-25 05:32:00,
2013-07-24 22:43:00,70.0,50.0,30.01,NE,49,0.0,5.0,49,0.00,,,0.00,,2013-07-25 05:43:00,
2013-07-24 22:52:00,70.0,49.0,30.01,ENE,61,0.0,2.0,47,0.00,,,0.00,,2013-07-25 05:52:00,
2013-07-24 23:02:00,69.0,48.0,30.01,East,82,0.0,0.0,48,0.00,,,0.00,,2013-07-25 06:02:00,
2013-07-24 23:12:00,69.0,48.0,30.01,East,82,0.0,0.0,48,0.00,,,0.00,,2013-07-25 06:12:00,
2013-07-24 23:22:00,69.0,49.0,30.01,ENE,71,0.0,2.0,49,0.00,,,0.00,,2013-07-25 06:22:00,
2013-07-24 23:32:00,69.0,49.0,30.01,ENE,71,0.0,2.0,49,0.00,,,0.00,,2013-07-25 06:32:00,
2013-07-24 23:42:00,69.0,49.0,30.01,ENE,71,0.0,2.0,49,0.00,,,0.00,,2013-07-25 06:42:00,
2013-07-24 23:52:00,68.0,50.0,30.01,ENE,71,0.0,1.0,52,0.00,,,0.00,,2013-07-25 06:52:00,